DW9289 Weather Reports


time (UTC)temp
C
wind
direction
speed
KPH
gust
KPH
rain 1hr
cm
rain 24hr
cm
rain mn
cm
humidity
%
barometer
mb
20260906022402 26 144 0.0 0.0 0.00 0.00 0.00 88 1011.8
20260906021857 26 144 0.0 0.0 0.00 0.00 0.00 88 1011.7
20260906021356 26 144 0.0 0.0 0.00 0.00 0.00 87 1011.6
20260906020851 26 144 0.0 0.0 0.00 0.00 0.00 87 1011.3
20260906020350 26 144 0.0 0.0 0.00 0.00 0.00 87 1011.7
20260906015845 27 143 0.0 0.0 0.00 0.00 0.00 86 1011.5
20260906015344 27 146 0.0 0.0 0.00 0.00 0.00 85 1011.6
20260906014839 27 155 0.0 0.0 0.00 0.00 0.00 84 1011.6
20260906014339 27 154 0.0 0.0 0.00 0.00 0.00 84 1011.6
20260906013830 27 154 0.0 0.0 0.00 0.00 0.00 83 1011.6
20260906013325 27 154 0.0 0.0 0.00 0.00 0.00 83 1011.7
20260906012821 27 154 0.0 0.0 0.00 0.00 0.00 82 1011.6
20260906012321 27 154 0.0 0.0 0.00 0.00 0.00 82 1011.6
20260906011815 27 154 0.0 0.0 0.00 0.00 0.00 82 1011.6
20260906011315 27 154 0.0 0.0 0.00 0.00 0.00 82 1011.8
20260906010812 27 154 0.0 0.0 0.00 0.00 0.00 81 1011.7
20260906010308 27 154 0.0 0.0 0.00 0.00 0.00 80 1012.1
20260906005803 28 154 0.0 0.0 0.00 0.00 0.00 80 1011.9
20260906005301 28 154 0.0 0.0 0.00 0.00 0.00 79 1011.7
20260906004800 28 154 0.0 0.0 0.00 0.00 0.00 78 1011.6
20260906004255 28 154 0.0 0.0 0.00 0.00 0.00 78 1011.7
20260906003750 28 153 0.0 0.0 0.00 0.00 0.00 79 1011.6
20260906003246 28 154 0.0 0.0 0.00 0.00 0.00 78 1011.4
20260906002741 28 154 0.0 0.0 0.00 0.00 0.00 78 1011.4
20260906002241 28 154 0.0 0.0 0.00 0.00 0.00 77 1011.5
20260906001736 28 153 0.0 0.0 0.00 0.00 0.00 77 1011.4
20260906001231 29 154 0.0 0.0 0.00 0.00 0.00 76 1011.5
20260906000727 29 154 0.0 0.0 0.00 0.00 0.00 76 1011.6
20260906000226 30 154 0.0 0.0 0.00 0.00 0.00 75 1011.7
20260905235721 30 154 0.0 0.0 0.00 0.00 0.00 74 1011.4
20260905235216 30 153 0.0 0.0 0.00 0.00 0.00 72 1011.7
20260905234711 30 154 0.0 0.0 0.00 0.00 0.00 71 1011.8
20260905234207 30 154 0.0 0.0 0.00 0.00 0.00 71 1011.8
20260905233702 31 150 0.0 0.0 0.00 0.00 0.00 69 1011.9
20260905233201 31 149 0.0 0.0 0.00 0.00 0.00 69 1011.7
20260905232656 31 154 0.0 0.0 0.00 0.00 0.00 69 1011.8
20260905232152 31 154 0.0 0.0 0.00 0.00 0.00 68 1011.7
20260905231647 32 150 0.0 0.0 0.00 0.00 0.00 66 1011.7
20260905231143 32 157 0.0 0.0 0.00 0.00 0.00 65 1011.3
20260905230639 33 159 0.0 0.0 0.00 0.00 0.00 62 1011.6
20260905230137 33 115 0.0 1.6 0.00 0.00 0.00 59 1011.6
20260905225636 34 156 0.0 0.0 0.00 0.00 0.00 59 1011.7
20260905225131 35 113 0.0 0.0 0.00 0.00 0.00 55 1011.5
20260905224630 35 197 0.0 0.0 0.00 0.00 0.00 52 1011.6
20260905224125 35 324 1.6 1.6 0.00 0.00 0.00 50 1011.3
20260905223622 36 106 0.0 1.6 0.00 0.00 0.00 50 1011.5
20260905223118 36 250 0.0 0.0 0.00 0.00 0.00 51 1011.6
20260905222613 36 188 0.0 0.0 0.00 0.00 0.00 51 1011.4
20260905222108 36 59 1.6 1.6 0.00 0.00 0.00 50 1011.6
20260905221604 36 56 0.0 0.0 0.00 0.00 0.00 47 1011.7
20260905221100 37 217 1.6 1.6 0.00 0.00 0.00 49 1011.7
20260905220555 37 219 0.0 0.0 0.00 0.00 0.00 48 1011.8
20260905220051 36 188 0.0 0.0 0.00 0.00 0.00 49 1011.7
20260905215550 37 180 0.0 0.0 0.00 0.00 0.00 48 1011.5
20260905215047 36 168 1.6 3.2 0.00 0.00 0.00 50 1011.6
20260905214542 36 355 3.2 3.2 0.00 0.00 0.00 47 1011.5
20260905214037 36 272 0.0 0.0 0.00 0.00 0.00 47 1011.6
20260905213532 36 18 3.2 3.2 0.00 0.00 0.00 48 1011.5
20260905213028 37 328 0.0 1.6 0.00 0.00 0.00 45 1011.6
20260905212523 37 274 1.6 1.6 0.00 0.00 0.00 47 1011.7
20260905212022 37 193 1.6 1.6 0.00 0.00 0.00 49 1011.7
20260905211517 37 106 0.0 1.6 0.00 0.00 0.00 48 1011.8
20260905211013 36 315 0.0 1.6 0.00 0.00 0.00 46 1011.6
20260905210509 37 36 3.2 3.2 0.00 0.00 0.00 47 1011.7
20260905210009 36 20 1.6 1.6 0.00 0.00 0.00 48 1011.9
20260905205503 36 277 1.6 1.6 0.00 0.00 0.00 48 1012.1
20260905205002 36 314 1.6 1.6 0.00 0.00 0.00 49 1012.1
20260905204457 36 354 1.6 6.4 0.00 0.00 0.00 50 1012.1
20260905203957 36 189 1.6 1.6 0.00 0.00 0.00 50 1012.2
20260905203452 36 72 3.2 3.2 0.00 0.00 0.00 50 1012.2
20260905202947 36 11 4.8 4.8 0.00 0.00 0.00 50 1012.2
20260905202442 36 75 4.8 4.8 0.00 0.00 0.00 49 1012.4
20260905201938 36 79 3.2 3.2 0.00 0.00 0.00 50 1012.4
20260905201433 37 292 6.4 6.4 0.00 0.00 0.00 47 1012.5
20260905200927 37 335 4.8 6.4 0.00 0.00 0.00 46 1012.5
20260905200423 37 224 0.0 0.0 0.00 0.00 0.00 54 1012.6
20260905195921 37 52 3.2 4.8 0.00 0.00 0.00 49 1012.7
20260905195417 37 278 3.2 4.8 0.00 0.00 0.00 47 1012.9
20260905194912 37 335 1.6 3.2 0.00 0.00 0.00 48 1012.7
20260905194411 36 14 4.8 4.8 0.00 0.00 0.00 49 1012.9
20260905193906 37 238 1.6 1.6 0.00 0.00 0.00 49 1012.9
20260905193401 37 10 0.0 1.6 0.00 0.00 0.00 49 1012.9
20260905192856 37 326 0.0 1.6 0.00 0.00 0.00 49 1012.8
20260905192351 37 302 3.2 3.2 0.00 0.00 0.00 49 1012.9
20260905191851 36 166 1.6 1.6 0.00 0.00 0.00 49 1013.0
20260905191350 36 227 1.6 1.6 0.00 0.00 0.00 50 1013.1
20260905190849 36 227 1.6 1.6 0.00 0.00 0.00 49 1013.2
20260905190342 35 274 0.0 0.0 0.00 0.00 0.00 50 1013.3
20260905185841 35 52 3.2 3.2 0.00 0.00 0.00 50 1013.5
20260905185331 35 96 1.6 3.2 0.00 0.00 0.00 50 1013.8
20260905184830 35 110 1.6 1.6 0.00 0.00 0.00 50 1013.5
20260905184330 36 90 1.6 1.6 0.00 0.00 0.00 47 1013.7
20260905183827 36 303 1.6 1.6 0.00 0.00 0.00 45 1014.0
20260905183324 35 134 1.6 1.6 0.00 0.00 0.00 48 1014.0
20260905182823 35 111 1.6 1.6 0.00 0.00 0.00 50 1014.1
20260905182318 35 348 1.6 3.2 0.00 0.00 0.00 50 1014.0
20260905181813 35 70 1.6 3.2 0.00 0.00 0.00 52 1014.1
20260905181307 35 63 1.6 1.6 0.00 0.00 0.00 50 1014.1
20260905180806 35 120 0.0 1.6 0.00 0.00 0.00 53 1014.3
20260905180301 35 98 0.0 1.6 0.00 0.00 0.00 51 1014.2
20260905175756 35 48 0.0 1.6 0.00 0.00 0.00 51 1014.4
20260905175250 35 174 1.6 3.2 0.00 0.00 0.00 51 1014.2
20260905174746 34 19 1.6 1.6 0.00 0.00 0.00 53 1014.2
20260905174242 34 140 1.6 3.2 0.00 0.00 0.00 53 1014.1
20260905173737 35 9 3.2 4.8 0.00 0.00 0.00 53 1014.2
20260905173233 35 284 0.0 0.0 0.00 0.00 0.00 56 1014.3
20260905172732 34 204 1.6 1.6 0.00 0.00 0.00 56 1014.3
20260905172227 34 226 1.6 1.6 0.00 0.00 0.00 56 1014.3
20260905171723 33 79 1.6 3.2 0.00 0.00 0.00 56 1014.3
20260905171219 33 210 1.6 1.6 0.00 0.00 0.00 58 1014.5
20260905170716 33 25 4.8 4.8 0.00 0.00 0.00 58 1014.6
20260905170216 33 342 0.0 1.6 0.00 0.00 0.00 57 1014.6
20260905165715 33 83 1.6 1.6 0.00 0.00 0.00 58 1014.6
20260905165211 33 77 1.6 1.6 0.00 0.00 0.00 61 1014.7
20260905164710 32 16 1.6 3.2 0.00 0.00 0.00 60 1014.6
20260905164205 32 39 1.6 1.6 0.00 0.00 0.00 60 1014.6
20260905163701 32 10 3.2 3.2 0.00 0.00 0.00 59 1014.8
20260905163157 32 92 0.0 0.0 0.00 0.00 0.00 59 1014.8
20260905162653 32 310 1.6 1.6 0.00 0.00 0.00 60 1015.1
20260905162152 32 208 0.0 1.6 0.00 0.00 0.00 60 1014.9
20260905161647 32 33 3.2 4.8 0.00 0.00 0.00 61 1014.9
20260905161145 32 153 0.0 0.0 0.00 0.00 0.00 63 1014.9
20260905160639 32 270 1.6 1.6 0.00 0.00 0.00 64 1015.0
20260905160138 32 81 0.0 1.6 0.00 0.00 0.00 63 1015.2
20260905155633 32 237 3.2 3.2 0.00 0.00 0.00 62 1015.1
20260905155132 32 340 0.0 1.6 0.00 0.00 0.00 64 1015.1
20260905154632 32 99 0.0 1.6 0.00 0.00 0.00 66 1015.3
20260905154128 31 22 1.6 3.2 0.00 0.00 0.00 66 1015.2
20260905153623 31 29 4.8 4.8 0.00 0.00 0.00 67 1015.4
20260905153119 31 283 0.0 1.6 0.00 0.00 0.00 67 1015.3
20260905152613 31 9 6.4 6.4 0.00 0.00 0.00 67 1015.2
20260905152108 31 108 1.6 1.6 0.00 0.00 0.00 68 1015.4
20260905151603 30 305 0.0 1.6 0.00 0.00 0.00 69 1015.6
20260905151058 30 19 1.6 1.6 0.00 0.00 0.00 70 1015.7
20260905150554 30 29 1.6 3.2 0.00 0.00 0.00 69 1015.6
20260905150051 30 56 0.0 0.0 0.00 0.00 0.00 71 1015.6
20260905145545 30 342 1.6 1.6 0.00 0.00 0.00 71 1015.4
20260905145044 30 19 3.2 3.2 0.00 0.00 0.00 71 1015.3
20260905144539 30 25 3.2 4.8 0.00 0.00 0.00 73 1015.4
20260905144038 29 87 0.0 1.6 0.00 0.00 0.00 74 1015.6
20260905143538 29 30 1.6 3.2 0.00 0.00 0.00 74 1015.7
20260905143033 29 83 0.0 0.0 0.00 0.00 0.00 78 1015.4
20260905142532 28 30 0.0 0.0 0.00 0.00 0.00 79 1015.7
20260905142027 28 62 0.0 0.0 0.00 0.00 0.00 84 1015.6
20260905141521 28 61 0.0 0.0 0.00 0.00 0.00 85 1015.8
20260905141018 27 61 0.0 0.0 0.00 0.00 0.00 84 1015.4
20260905140513 27 61 0.0 0.0 0.00 0.00 0.00 86 1015.3
20260905140011 27 61 0.0 0.0 0.00 0.00 0.00 87 1015.4
20260905135507 27 61 0.0 0.0 0.00 0.00 0.00 87 1015.6
20260905135002 26 61 0.0 0.0 0.00 0.00 0.00 88 1015.6
20260905134502 26 61 0.0 0.0 0.00 0.00 0.00 88 1015.2
20260905134001 26 61 0.0 0.0 0.00 0.00 0.00 88 1015.6
20260905133455 26 61 0.0 0.0 0.00 0.00 0.00 89 1015.6
20260905132949 26 61 0.0 0.0 0.00 0.00 0.00 90 1015.6
20260905132445 26 61 0.0 0.0 0.00 0.00 0.00 90 1015.4
20260905131939 26 61 0.0 0.0 0.00 0.00 0.00 91 1015.4
20260905131435 26 61 0.0 0.0 0.00 0.00 0.00 92 1015.4
20260905130930 25 61 0.0 0.0 0.00 0.00 0.00 93 1015.7
20260905130429 25 61 0.0 0.0 0.00 0.00 0.00 93 1015.6
20260905125924 25 61 0.0 0.0 0.00 0.00 0.00 93 1015.3
20260905125419 24 61 0.0 0.0 0.00 0.00 0.00 94 1015.7
20260905124914 24 62 0.0 0.0 0.00 0.00 0.00 94 1015.7
20260905124411 24 62 0.0 0.0 0.00 0.00 0.00 95 1015.8
20260905123911 24 61 0.0 0.0 0.00 0.00 0.00 96 1015.8
20260905123407 23 61 0.0 0.0 0.00 0.00 0.00 96 1015.6
20260905122902 23 61 0.0 0.0 0.00 0.00 0.00 97 1015.7
20260905122402 23 61 0.0 0.0 0.00 0.00 0.00 98 1015.6
20260905121857 23 68 0.0 0.0 0.00 0.00 0.00 99 1015.3
20260905121353 22 146 0.0 0.0 0.00 0.00 0.00 99 1015.4
20260905120852 22 146 0.0 0.0 0.00 0.00 0.00 99 1015.4
20260905120346 22 146 0.0 0.0 0.00 0.00 0.00 99 1015.3
20260905115842 22 145 0.0 0.0 0.00 0.00 0.00 99 1015.0
20260905115340 22 145 0.0 0.0 0.00 0.00 0.00 99 1015.0
20260905114840 22 144 0.0 0.0 0.00 0.00 0.00 99 1015.0
20260905114339 22 144 0.0 0.0 0.00 0.00 0.00 99 1014.9
20260905113834 22 144 0.0 0.0 0.00 0.00 0.00 99 1015.0
20260905113330 22 144 0.0 0.0 0.00 0.00 0.00 99 1014.7
20260905112825 22 144 0.0 0.0 0.00 0.00 0.00 99 1014.9
20260905112320 22 144 0.0 0.0 0.00 0.00 0.00 99 1014.7
20260905111815 22 144 0.0 0.0 0.00 0.00 0.00 99 1014.7
20260905111309 22 144 0.0 0.0 0.00 0.00 0.00 99 1014.6
20260905110808 22 144 0.0 0.0 0.00 0.00 0.00 99 1014.5
20260905110302 22 144 0.0 0.0 0.00 0.00 0.00 99 1014.4
20260905105758 22 144 0.0 0.0 0.00 0.00 0.00 99 1014.3
20260905105257 22 144 0.0 0.0 0.00 0.00 0.00 99 1014.4
20260905104751 22 144 0.0 0.0 0.00 0.00 0.00 99 1014.4
20260905104248 22 144 0.0 0.0 0.00 0.00 0.00 99 1014.5
20260905103747 22 144 0.0 0.0 0.00 0.00 0.00 99 1014.3
20260905103243 22 145 0.0 0.0 0.00 0.00 0.00 99 1014.1
20260905102738 22 145 0.0 0.0 0.00 0.00 0.00 99 1014.2
20260905102235 22 145 0.0 0.0 0.00 0.00 0.00 99 1014.2
20260905101734 22 145 0.0 0.0 0.00 0.00 0.00 99 1014.0
20260905101233 22 144 0.0 0.0 0.00 0.00 0.00 98 1014.0
20260905100728 22 144 0.0 0.0 0.00 0.00 0.00 98 1014.1
20260905100223 22 145 0.0 0.0 0.00 0.00 0.00 98 1014.0
20260905095718 22 145 0.0 0.0 0.00 0.00 0.00 98 1013.8
20260905095218 22 145 0.0 0.0 0.00 0.00 0.00 98 1014.2
20260905094712 22 145 0.0 0.0 0.00 0.00 0.00 98 1014.0
20260905094207 22 143 0.0 0.0 0.00 0.00 0.00 98 1014.1
20260905093701 22 143 0.0 0.0 0.00 0.00 0.00 98 1014.2
20260905093158 22 143 0.0 0.0 0.00 0.00 0.00 98 1014.0
20260905092653 22 143 0.0 0.0 0.00 0.00 0.00 98 1014.1
20260905092148 22 143 0.0 0.0 0.00 0.00 0.00 98 1014.2
20260905091648 22 143 0.0 0.0 0.00 0.00 0.00 98 1014.2
20260905091147 22 143 0.0 0.0 0.00 0.00 0.00 98 1014.2
20260905090642 22 143 0.0 0.0 0.00 0.00 0.00 98 1014.2
20260905090138 22 143 0.0 0.0 0.00 0.00 0.00 98 1014.3
20260905085636 22 143 0.0 0.0 0.00 0.00 0.00 97 1013.9
20260905085126 22 143 0.0 0.0 0.00 0.00 0.00 97 1014.0
20260905084626 22 143 0.0 0.0 0.00 0.00 0.00 97 1014.1
20260905084120 22 143 0.0 0.0 0.00 0.00 0.00 97 1014.1
20260905083615 22 143 0.0 0.0 0.00 0.00 0.00 97 1014.1
20260905083112 22 143 0.0 0.0 0.00 0.00 0.00 97 1014.2
20260905082607 22 143 0.0 0.0 0.00 0.00 0.00 97 1014.1
20260905082102 22 143 0.0 0.0 0.00 0.00 0.00 97 1014.2
20260905081602 22 143 0.0 0.0 0.00 0.00 0.00 97 1014.2
20260905081057 22 143 0.0 0.0 0.00 0.00 0.00 97 1014.1
20260905080557 22 143 0.0 0.0 0.00 0.00 0.00 97 1013.8
20260905080051 23 143 0.0 0.0 0.00 0.00 0.00 97 1014.4
20260905075544 23 143 0.0 0.0 0.00 0.00 0.00 97 1014.3
20260905075038 23 143 0.0 0.0 0.00 0.00 0.00 96 1014.2
20260905074532 23 143 0.0 0.0 0.00 0.00 0.00 96 1014.1
20260905074028 23 143 0.0 0.0 0.00 0.00 0.00 96 1014.2
20260905073524 23 143 0.0 0.0 0.00 0.00 0.00 96 1014.2
20260905073020 23 143 0.0 0.0 0.00 0.00 0.00 96 1014.4
20260905072518 23 143 0.0 0.0 0.00 0.00 0.00 95 1014.2
20260905072014 23 143 0.0 0.0 0.00 0.00 0.00 95 1014.3
20260905071511 23 143 0.0 0.0 0.00 0.00 0.00 95 1014.3
20260905071011 23 143 0.0 0.0 0.00 0.00 0.00 95 1014.3
20260905070506 23 143 0.0 0.0 0.00 0.00 0.00 95 1014.3
20260905070002 23 144 0.0 0.0 0.00 0.00 0.00 95 1014.3
20260905065459 23 144 0.0 0.0 0.00 0.00 0.00 96 1014.3
20260905064955 23 144 0.0 0.0 0.00 0.00 0.00 96 1014.1
20260905064450 23 144 0.0 0.0 0.00 0.00 0.00 96 1014.0
20260905063945 23 144 0.0 0.0 0.00 0.00 0.00 96 1014.1
20260905063439 23 144 0.0 0.0 0.00 0.00 0.00 96 1014.1
20260905062935 23 144 0.0 0.0 0.00 0.00 0.00 96 1014.1
20260905062429 23 144 0.0 0.0 0.00 0.00 0.00 96 1014.1
20260905061924 23 144 0.0 0.0 0.00 0.00 0.00 96 1014.2
20260905061419 23 144 0.0 0.0 0.00 0.00 0.00 96 1014.1
20260905060918 23 144 0.0 0.0 0.00 0.00 0.00 96 1013.9
20260905060415 23 144 0.0 0.0 0.00 0.00 0.00 96 1014.2
20260905055914 23 144 0.0 0.0 0.00 0.00 0.00 95 1014.2
20260905055409 23 144 0.0 0.0 0.00 0.00 0.00 95 1014.4
20260905054908 23 144 0.0 0.0 0.00 0.00 0.00 95 1014.2
20260905054405 23 144 0.0 0.0 0.00 0.00 0.00 95 1014.3
20260905053904 23 144 0.0 0.0 0.00 0.00 0.00 95 1014.2
20260905053359 23 144 0.0 0.0 0.00 0.00 0.00 95 1014.4
20260905052855 23 144 0.0 0.0 0.00 0.00 0.00 95 1014.6
20260905052353 23 144 0.0 0.0 0.00 0.00 0.00 95 1014.7
20260905051848 23 144 0.0 0.0 0.00 0.00 0.00 95 1014.4
20260905051344 23 146 0.0 0.0 0.00 0.00 0.00 95 1014.3
20260905050841 23 134 0.0 0.0 0.00 0.00 0.00 94 1014.3
20260905050336 23 134 0.0 0.0 0.00 0.00 0.00 94 1014.5
20260905045831 23 134 0.0 0.0 0.00 0.00 0.00 94 1014.5
20260905045326 23 134 0.0 0.0 0.00 0.00 0.00 94 1014.5
20260905044822 23 134 0.0 0.0 0.00 0.00 0.00 93 1014.5
20260905044317 23 134 0.0 0.0 0.00 0.00 0.00 93 1015.0
20260905043816 23 134 0.0 0.0 0.00 0.00 0.00 93 1014.7
20260905043310 23 134 0.0 0.0 0.00 0.00 0.00 93 1014.7
20260905042810 24 134 0.0 0.0 0.00 0.00 0.00 92 1014.7
20260905042307 24 134 0.0 0.0 0.00 0.00 0.00 92 1014.7
20260905041800 24 134 0.0 0.0 0.00 0.00 0.00 92 1014.6
20260905041256 24 134 0.0 0.0 0.00 0.00 0.00 91 1014.5
20260905040751 24 134 0.0 0.0 0.00 0.00 0.00 91 1014.5
20260905040249 24 134 0.0 0.0 0.00 0.00 0.00 91 1014.5
20260905035744 24 134 0.0 0.0 0.00 0.00 0.00 90 1014.8
20260905035240 24 134 0.0 0.0 0.00 0.00 0.00 90 1014.9
20260905034737 24 134 0.0 0.0 0.00 0.00 0.00 89 1014.6
20260905034237 24 134 0.0 0.0 0.00 0.00 0.00 89 1014.7
20260905033735 24 134 0.0 0.0 0.00 0.00 0.00 89 1014.8
20260905033225 25 133 0.0 0.0 0.00 0.00 0.00 89 1014.7
20260905032725 25 133 0.0 0.0 0.00 0.00 0.00 89 1014.6
20260905032220 25 133 0.0 0.0 0.00 0.00 0.00 88 1014.9
20260905031715 25 122 0.0 0.0 0.00 0.00 0.00 88 1014.9
20260905031211 -17 0.0 0.0 0.00 0.00 0.00 1014.8
20260905030706 25 119 0.0 0.0 0.00 0.00 0.00 86 1014.9
20260905030201 25 119 0.0 0.0 0.00 0.00 0.00 86 1015.0
20260905025656 25 127 0.0 0.0 0.00 0.00 0.00 86 1015.0
20260905025151 25 134 0.0 0.0 0.00 0.00 0.00 86 1015.1
20260905024647 25 133 0.0 0.0 0.00 0.00 0.00 86 1015.1
20260905024143 25 128 0.0 0.0 0.00 0.00 0.00 86 1015.1
20260905023638 25 126 0.0 0.0 0.00 0.00 0.00 85 1015.3
20260905023137 25 117 0.0 0.0 0.00 0.00 0.00 85 1015.2
20260905022636 25 100 0.0 0.0 0.00 0.00 0.00 85 1015.2